CFG3AH EDDH-EDDF

Flight info

Callsign CFG3AH
Flight time 1h 1m
Altitude 34000
Route AMLUH2G/33 AMLUH M852 DENIX DCT RIMET T157 KERAX KERAX5D
Aircraft A320/M-SDE3FGHIJ1LORVWXYZ/S

Departure

Time 2026-05-07 18:16
Airport Hamburg Helmut Schmidt Airport (EDDH)

Arrival

Time 2026-05-07 19:17
Airport Frankfurt Main Airport (EDDF)
Time Latitude Longitude Altitude Speed Heading
2026-05-07 18:03 53.63182 10.00038 45 ft 0 kts 51°
2026-05-07 18:05 53.63185 10.00046 49 ft 3 kts 51°
2026-05-07 18:05 53.63218 10.00113 49 ft 11 kts 51°
2026-05-07 18:06 53.63211 10.00231 49 ft 13 kts 149°
2026-05-07 18:06 53.63124 10.00258 49 ft 13 kts 175°
2026-05-07 18:06 53.63042 10.00234 48 ft 12 kts 211°
2026-05-07 18:06 53.62973 10.00159 49 ft 12 kts 213°
2026-05-07 18:07 53.62917 10.00099 49 ft 7 kts 213°
2026-05-07 18:07 53.62892 10.00071 49 ft 4 kts 215°
2026-05-07 18:07 53.62884 10.00058 49 ft 0 kts 223°
2026-05-07 18:09 53.62878 10.00050 47 ft 5 kts 223°
2026-05-07 18:10 53.62852 9.99986 48 ft 5 kts 243°
2026-05-07 18:10 53.62849 9.99975 48 ft 0 kts 243°
2026-05-07 18:11 53.62847 9.99969 48 ft 1 kts 243°
2026-05-07 18:11 53.62833 9.99920 45 ft 8 kts 243°
2026-05-07 18:11 53.62808 9.99828 42 ft 9 kts 257°
2026-05-07 18:12 53.62834 9.99774 45 ft 0 kts 333°
2026-05-07 18:15 53.62840 9.99768 45 ft 8 kts 333°
2026-05-07 18:15 53.63153 9.99501 46 ft 93 kts 333°
2026-05-07 18:15 53.63950 9.98812 57 ft 160 kts 336°
2026-05-07 18:16 53.64912 9.98000 757 ft 136 kts 338°
2026-05-07 18:16 53.65821 9.97225 1396 ft 160 kts 338°
2026-05-07 18:16 53.66867 9.96337 1946 ft 175 kts 338°
2026-05-07 18:16 53.68032 9.95366 2527 ft 197 kts 336°
2026-05-07 18:17 53.69409 9.94675 3041 ft 217 kts
2026-05-07 18:17 53.70920 9.94694 4089 ft 218 kts
2026-05-07 18:17 53.72426 9.95011 5084 ft 220 kts 26°
2026-05-07 18:17 53.73535 9.96684 6046 ft 218 kts 64°
2026-05-07 18:18 53.73900 9.99186 6984 ft 222 kts 81°
2026-05-07 18:18 53.74087 10.01800 7949 ft 226 kts 90°
2026-05-07 18:18 53.73851 10.04446 8860 ft 237 kts 108°
2026-05-07 18:18 53.72941 10.06929 9364 ft 265 kts 138°
2026-05-07 18:19 53.71235 10.08277 10032 ft 285 kts 171°
2026-05-07 18:19 53.69194 10.08542 10600 ft 306 kts 177°
2026-05-07 18:19 53.66985 10.08673 11070 ft 329 kts 178°
2026-05-07 18:19 53.64654 10.08760 11859 ft 338 kts 179°
2026-05-07 18:20 53.62287 10.08843 12779 ft 343 kts 179°
2026-05-07 18:20 53.59885 10.08944 13716 ft 348 kts 179°
2026-05-07 18:20 53.57449 10.09065 14549 ft 352 kts 179°
2026-05-07 18:20 53.55023 10.09204 15338 ft 356 kts 178°
2026-05-07 18:21 53.52493 10.09362 16152 ft 361 kts 179°
2026-05-07 18:21 53.50006 10.09519 16935 ft 365 kts 179°
2026-05-07 18:21 53.47452 10.09679 17729 ft 369 kts 179°
2026-05-07 18:21 53.44872 10.09840 18497 ft 374 kts 179°
2026-05-07 18:22 53.42258 10.10002 19174 ft 378 kts 179°
2026-05-07 18:22 53.40476 10.10111 19647 ft 380 kts 179°
2026-05-07 18:22 53.36956 10.10320 20579 ft 385 kts 179°
2026-05-07 18:22 53.34269 10.10478 21284 ft 388 kts 179°
2026-05-07 18:23 53.31552 10.10639 21983 ft 392 kts 179°
2026-05-07 18:23 53.28815 10.10801 22671 ft 396 kts 179°
2026-05-07 18:23 53.26049 10.10965 23348 ft 399 kts 179°
2026-05-07 18:23 53.23259 10.11131 23946 ft 403 kts 179°
2026-05-07 18:24 53.20448 10.11299 24478 ft 406 kts 179°
2026-05-07 18:24 53.17612 10.11467 25002 ft 409 kts 179°
2026-05-07 18:24 53.14754 10.11635 25518 ft 412 kts 179°
2026-05-07 18:24 53.11880 10.11802 26015 ft 415 kts 179°
2026-05-07 18:25 53.08978 10.11969 26497 ft 418 kts 179°
2026-05-07 18:25 53.06058 10.12139 26977 ft 421 kts 179°
2026-05-07 18:25 53.03119 10.12313 27449 ft 424 kts 179°
2026-05-07 18:25 53.00159 10.12488 27915 ft 427 kts 179°
2026-05-07 18:26 52.97182 10.12666 28370 ft 430 kts 179°
2026-05-07 18:26 52.94181 10.12847 28810 ft 433 kts 179°
2026-05-07 18:26 52.91159 10.13029 29237 ft 436 kts 179°
2026-05-07 18:26 52.88118 10.13208 29656 ft 439 kts 179°
2026-05-07 18:27 52.85055 10.13383 30057 ft 441 kts 178°
2026-05-07 18:27 52.82311 10.13828 30351 ft 445 kts 170°
2026-05-07 18:27 52.79268 10.14853 30654 ft 448 kts 168°
2026-05-07 18:27 52.76215 10.15926 30953 ft 450 kts 168°
2026-05-07 18:28 52.73130 10.17007 31255 ft 452 kts 168°
2026-05-07 18:28 52.70044 10.18083 31549 ft 454 kts 168°
2026-05-07 18:28 52.66943 10.19159 31850 ft 456 kts 168°
2026-05-07 18:28 52.63848 10.20228 32233 ft 455 kts 168°
2026-05-07 18:29 52.60754 10.21293 32632 ft 454 kts 168°
2026-05-07 18:29 52.57700 10.22339 33016 ft 453 kts 168°
2026-05-07 18:29 52.54571 10.23406 33408 ft 453 kts 168°
2026-05-07 18:29 52.51482 10.24457 33746 ft 454 kts 168°
2026-05-07 18:30 52.48392 10.25506 34017 ft 453 kts 168°
2026-05-07 18:30 52.42255 10.27585 34110 ft 453 kts 168°
2026-05-07 18:31 52.36079 10.29674 34106 ft 453 kts 168°
2026-05-07 18:31 52.29911 10.31757 34109 ft 453 kts 168°
2026-05-07 18:32 52.27488 10.32587 34107 ft 453 kts 168°
2026-05-07 18:32 52.23008 10.34122 34111 ft 454 kts 168°
2026-05-07 18:33 52.16822 10.36242 34109 ft 454 kts 168°
2026-05-07 18:33 52.10643 10.37026 33944 ft 436 kts 187°
2026-05-07 18:33 52.07672 10.36472 33660 ft 424 kts 187°
2026-05-07 18:34 52.04743 10.35894 33381 ft 426 kts 188°
2026-05-07 18:34 52.01796 10.35297 33119 ft 427 kts 188°
2026-05-07 18:34 51.98842 10.34695 32836 ft 428 kts 188°
2026-05-07 18:34 51.95884 10.34096 32567 ft 429 kts 188°
2026-05-07 18:35 51.92924 10.33503 32301 ft 429 kts 187°
2026-05-07 18:35 51.89998 10.32923 32087 ft 429 kts 187°
2026-05-07 18:35 51.87036 10.32339 32100 ft 430 kts 188°
2026-05-07 18:35 51.84060 10.31756 31849 ft 430 kts 188°
2026-05-07 18:36 51.81093 10.31177 31586 ft 430 kts 187°
2026-05-07 18:36 51.78124 10.30600 31330 ft 430 kts 187°
2026-05-07 18:36 51.75159 10.30023 31076 ft 430 kts 187°
2026-05-07 18:36 51.72189 10.29445 30821 ft 430 kts 187°
2026-05-07 18:37 51.69216 10.28871 30583 ft 430 kts 187°
2026-05-07 18:37 51.66245 10.28298 30331 ft 431 kts 187°
2026-05-07 18:37 51.63270 10.27718 30065 ft 431 kts 188°
2026-05-07 18:37 51.60287 10.27133 29774 ft 431 kts 188°
2026-05-07 18:38 51.57309 10.26552 29482 ft 431 kts 188°
2026-05-07 18:38 51.54333 10.25973 29192 ft 431 kts 188°
2026-05-07 18:38 51.51356 10.25395 28909 ft 431 kts 188°
2026-05-07 18:38 51.48376 10.24818 28630 ft 432 kts 188°
2026-05-07 18:39 51.45392 10.24238 28355 ft 432 kts 188°
2026-05-07 18:39 51.42401 10.23660 28082 ft 433 kts 188°
2026-05-07 18:39 51.39407 10.23090 27809 ft 434 kts 188°
2026-05-07 18:39 51.36410 10.22524 27537 ft 434 kts 188°
2026-05-07 18:40 51.33408 10.21995 27263 ft 435 kts 185°
2026-05-07 18:40 51.30387 10.21757 26996 ft 435 kts 188°
2026-05-07 18:40 51.27528 10.20332 26726 ft 431 kts 208°
2026-05-07 18:40 51.25105 10.17555 25990 ft 428 kts 225°
2026-05-07 18:41 51.23039 10.14288 25656 ft 414 kts 225°
2026-05-07 18:41 51.21009 10.11188 25556 ft 395 kts 224°
2026-05-07 18:41 51.18948 10.08446 25467 ft 379 kts 216°
2026-05-07 18:41 51.16781 10.06157 25388 ft 372 kts 214°
2026-05-07 18:42 51.14621 10.03860 25306 ft 374 kts 215°
2026-05-07 18:42 51.12466 10.01534 25213 ft 374 kts 215°
2026-05-07 18:42 51.10316 9.99190 25130 ft 374 kts 216°
2026-05-07 18:42 51.08168 9.96840 25049 ft 375 kts 216°
2026-05-07 18:43 51.06019 9.94492 24968 ft 375 kts 216°
2026-05-07 18:43 51.03895 9.92180 24885 ft 375 kts 216°
2026-05-07 18:43 51.01745 9.89849 24803 ft 374 kts 216°
2026-05-07 18:43 50.99593 9.87521 24719 ft 374 kts 215°
2026-05-07 18:44 50.97435 9.85193 24637 ft 383 kts 215°
2026-05-07 18:44 50.95190 9.82767 24516 ft 395 kts 215°
2026-05-07 18:44 50.92908 9.80304 24395 ft 398 kts 215°
2026-05-07 18:44 50.90618 9.77837 24276 ft 398 kts 215°
2026-05-07 18:45 50.88333 9.75379 23956 ft 395 kts 215°
2026-05-07 18:45 50.86072 9.72946 23423 ft 393 kts 215°
2026-05-07 18:45 50.83814 9.70519 22933 ft 391 kts 215°
2026-05-07 18:45 50.81575 9.68112 22416 ft 387 kts 215°
2026-05-07 18:46 50.79357 9.65731 21851 ft 383 kts 215°
2026-05-07 18:46 50.77163 9.63377 21283 ft 380 kts 215°
2026-05-07 18:46 50.74983 9.61048 20716 ft 377 kts 215°
2026-05-07 18:46 50.72816 9.58747 20161 ft 374 kts 215°
2026-05-07 18:47 50.70668 9.56470 19611 ft 371 kts 215°
2026-05-07 18:47 50.68534 9.54208 19079 ft 368 kts 215°
2026-05-07 18:47 50.66415 9.51963 18547 ft 365 kts 215°
2026-05-07 18:47 50.64343 9.49762 17979 ft 363 kts 215°
2026-05-07 18:48 50.62261 9.47546 17404 ft 360 kts 215°
2026-05-07 18:48 50.60192 9.45347 16842 ft 357 kts 215°
2026-05-07 18:48 50.58138 9.43165 16303 ft 355 kts 215°
2026-05-07 18:48 50.56097 9.41004 15771 ft 352 kts 215°
2026-05-07 18:49 50.54073 9.38860 15249 ft 350 kts 216°
2026-05-07 18:49 50.52071 9.36708 14740 ft 347 kts 216°
2026-05-07 18:49 50.50087 9.34552 14328 ft 347 kts 216°
2026-05-07 18:49 50.48110 9.32400 14019 ft 345 kts 216°
2026-05-07 18:50 50.46142 9.30262 13770 ft 344 kts 216°
2026-05-07 18:50 50.44175 9.28134 13507 ft 343 kts 216°
2026-05-07 18:50 50.42215 9.26023 13238 ft 341 kts 216°
2026-05-07 18:50 50.40922 9.24634 13110 ft 340 kts 215°
2026-05-07 18:51 50.38942 9.22607 13077 ft 340 kts 213°
2026-05-07 18:51 50.36934 9.20648 13081 ft 340 kts 212°
2026-05-07 18:51 50.34912 9.18721 13081 ft 340 kts 212°
2026-05-07 18:51 50.32885 9.16804 13078 ft 340 kts 212°
2026-05-07 18:52 50.30860 9.14883 13078 ft 340 kts 212°
2026-05-07 18:52 50.28906 9.12803 13068 ft 339 kts 221°
2026-05-07 18:52 50.27301 9.10133 13077 ft 336 kts 234°
2026-05-07 18:52 50.26137 9.06982 13079 ft 335 kts 248°
2026-05-07 18:53 50.25328 9.03575 13076 ft 334 kts 251°
2026-05-07 18:53 50.24540 9.00180 13072 ft 334 kts 251°
2026-05-07 18:53 50.23736 8.96746 13071 ft 335 kts 250°
2026-05-07 18:53 50.22991 8.93568 13070 ft 335 kts 250°
2026-05-07 18:54 50.22191 8.90161 13074 ft 334 kts 250°
2026-05-07 18:54 50.21384 8.86730 13069 ft 335 kts 250°
2026-05-07 18:54 50.20584 8.83340 13067 ft 335 kts 250°
2026-05-07 18:54 50.19781 8.79938 13066 ft 335 kts 250°
2026-05-07 18:55 50.18975 8.76527 13063 ft 334 kts 250°
2026-05-07 18:55 50.18193 8.73219 13059 ft 316 kts 250°
2026-05-07 18:55 50.17451 8.70089 13060 ft 300 kts 250°
2026-05-07 18:55 50.16733 8.67060 13081 ft 296 kts 250°
2026-05-07 18:56 50.16019 8.64064 13082 ft 295 kts 250°
2026-05-07 18:56 50.15305 8.61068 13083 ft 294 kts 250°
2026-05-07 18:56 50.14594 8.58079 13083 ft 294 kts 250°
2026-05-07 18:56 50.13879 8.55090 13084 ft 294 kts 250°
2026-05-07 18:57 50.13163 8.52101 13081 ft 294 kts 250°
2026-05-07 18:57 50.12445 8.49114 13083 ft 294 kts 250°
2026-05-07 18:57 50.11739 8.46166 13084 ft 294 kts 250°
2026-05-07 18:57 50.11024 8.43181 13061 ft 294 kts 250°
2026-05-07 18:58 50.10306 8.40204 13065 ft 294 kts 250°
2026-05-07 18:58 50.09586 8.37222 13062 ft 293 kts 250°
2026-05-07 18:58 50.08866 8.34248 13063 ft 293 kts 250°
2026-05-07 18:58 50.08144 8.31275 13068 ft 293 kts 250°
2026-05-07 18:59 50.07424 8.28307 13058 ft 293 kts 250°
2026-05-07 18:59 50.06702 8.25332 13062 ft 293 kts 250°
2026-05-07 18:59 50.05982 8.22360 13065 ft 294 kts 250°
2026-05-07 18:59 50.05258 8.19385 13063 ft 294 kts 250°
2026-05-07 19:00 50.04530 8.16410 13003 ft 295 kts 250°
2026-05-07 19:00 50.03799 8.13441 12743 ft 293 kts 250°
2026-05-07 19:00 50.03071 8.10485 12489 ft 292 kts 250°
2026-05-07 19:00 50.02348 8.07538 12230 ft 291 kts 250°
2026-05-07 19:01 50.01632 8.04608 11985 ft 290 kts 250°
2026-05-07 19:01 50.00915 8.01677 11729 ft 289 kts 250°
2026-05-07 19:01 50.00200 7.98758 11474 ft 289 kts 250°
2026-05-07 19:01 49.99488 7.95844 11226 ft 288 kts 250°
2026-05-07 19:02 49.98782 7.92943 11082 ft 287 kts 250°
2026-05-07 19:02 49.98074 7.90043 11073 ft 287 kts 250°
2026-05-07 19:02 49.97369 7.87171 11072 ft 287 kts 250°
2026-05-07 19:02 49.96647 7.84240 11070 ft 288 kts 250°
2026-05-07 19:03 49.95931 7.81335 11071 ft 288 kts 250°
2026-05-07 19:03 49.95229 7.78432 11069 ft 288 kts 250°
2026-05-07 19:03 49.94537 7.75523 11069 ft 288 kts 250°
2026-05-07 19:03 49.93844 7.72610 11073 ft 288 kts 250°
2026-05-07 19:04 49.93160 7.69737 11070 ft 287 kts 250°
2026-05-07 19:04 49.92469 7.66834 11069 ft 287 kts 250°
2026-05-07 19:04 49.91775 7.63932 11073 ft 287 kts 250°
2026-05-07 19:04 49.91079 7.61030 11077 ft 287 kts 250°
2026-05-07 19:05 49.90141 7.58315 11074 ft 288 kts 230°
2026-05-07 19:05 49.88539 7.56474 11074 ft 290 kts 204°
2026-05-07 19:05 49.86561 7.55897 11072 ft 293 kts 181°
2026-05-07 19:05 49.84548 7.56410 11075 ft 296 kts 159°
2026-05-07 19:06 49.82851 7.58196 11072 ft 299 kts 134°
2026-05-07 19:06 49.81126 7.63849 11069 ft 301 kts 96°
2026-05-07 19:06 49.81235 7.67083 11076 ft 301 kts 75°
2026-05-07 19:07 49.82071 7.70034 11075 ft 300 kts 54°
2026-05-07 19:07 49.83500 7.72350 11074 ft 298 kts 38°
2026-05-07 19:07 49.85003 7.74559 11073 ft 299 kts 50°
2026-05-07 19:07 49.86051 7.77333 11050 ft 299 kts 66°
2026-05-07 19:08 49.86822 7.80311 10684 ft 297 kts 68°
2026-05-07 19:08 49.87555 7.83254 10309 ft 295 kts 68°
2026-05-07 19:08 49.88284 7.86221 9909 ft 294 kts 69°
2026-05-07 19:08 49.89006 7.89170 9466 ft 292 kts 68°
2026-05-07 19:09 49.89721 7.92088 8938 ft 287 kts 68°
2026-05-07 19:09 49.90425 7.94975 8294 ft 285 kts 69°
2026-05-07 19:09 49.91117 7.97849 7647 ft 283 kts 68°
2026-05-07 19:09 49.91814 8.00698 7041 ft 281 kts 68°
2026-05-07 19:10 49.92505 8.03510 6442 ft 278 kts 68°
2026-05-07 19:10 49.93188 8.06297 5799 ft 275 kts 68°
2026-05-07 19:10 49.93859 8.09038 5312 ft 267 kts 68°
2026-05-07 19:10 49.94494 8.11644 5076 ft 249 kts 68°
2026-05-07 19:11 49.95089 8.14086 4992 ft 235 kts 68°
2026-05-07 19:11 49.95647 8.16376 4985 ft 219 kts 68°
2026-05-07 19:11 49.96177 8.18550 4796 ft 214 kts 68°
2026-05-07 19:11 49.96741 8.20860 4489 ft 234 kts 68°
2026-05-07 19:12 49.97296 8.23148 4167 ft 220 kts 68°
2026-05-07 19:12 49.97823 8.25324 3859 ft 209 kts 68°
2026-05-07 19:12 49.98321 8.27376 3585 ft 197 kts 67°
2026-05-07 19:12 49.98786 8.29299 3302 ft 182 kts 68°
2026-05-07 19:13 49.99208 8.31060 2977 ft 167 kts 68°
2026-05-07 19:13 49.99594 8.32660 2764 ft 149 kts 68°
2026-05-07 19:13 49.99930 8.34057 2603 ft 133 kts 66°
2026-05-07 19:13 50.00247 8.35365 2367 ft 126 kts 68°
2026-05-07 19:14 50.00545 8.36609 2181 ft 121 kts 68°
2026-05-07 19:14 50.00844 8.37840 2074 ft 122 kts 68°
2026-05-07 19:14 50.01146 8.39098 1902 ft 127 kts 67°
2026-05-07 19:14 50.01456 8.40371 1716 ft 125 kts 68°
2026-05-07 19:15 50.01761 8.41634 1491 ft 123 kts 68°
2026-05-07 19:15 50.02056 8.42862 1277 ft 121 kts 69°
2026-05-07 19:15 50.02360 8.44110 1126 ft 124 kts 68°
2026-05-07 19:15 50.02669 8.45361 983 ft 124 kts 68°
2026-05-07 19:16 50.02971 8.46626 810 ft 126 kts 70°
2026-05-07 19:16 50.03266 8.47883 616 ft 120 kts 69°
2026-05-07 19:16 50.03550 8.49070 428 ft 114 kts 69°
2026-05-07 19:16 50.03825 8.50207 321 ft 107 kts 69°
2026-05-07 19:17 50.04032 8.51073 327 ft 66 kts 70°
2026-05-07 19:17 50.04174 8.51666 333 ft 51 kts 70°
2026-05-07 19:17 50.04284 8.52132 337 ft 42 kts 69°
2026-05-07 19:17 50.04368 8.52486 344 ft 29 kts 74°
2026-05-07 19:18 50.04395 8.52755 352 ft 24 kts 86°
2026-05-07 19:18 50.04372 8.53004 356 ft 23 kts 99°
2026-05-07 19:18 50.04355 8.53172 362 ft 6 kts 99°
2026-05-07 19:18 50.04352 8.53194 360 ft 0 kts 99°
2026-05-07 19:19 50.04350 8.53211 361 ft 6 kts 99°
2026-05-07 19:19 50.04350 8.53297 366 ft 10 kts 79°
2026-05-07 19:20 50.04380 8.53428 372 ft 15 kts 70°
2026-05-07 19:20 50.04402 8.53611 376 ft 18 kts 85°
2026-05-07 19:20 50.04414 8.53800 376 ft 19 kts 84°
2026-05-07 19:20 50.04429 8.54021 376 ft 20 kts 85°
2026-05-07 19:21 50.04443 8.54243 375 ft 18 kts 85°
2026-05-07 19:21 50.04453 8.54395 372 ft 16 kts 84°
2026-05-07 19:21 50.04427 8.54597 369 ft 22 kts 117°
2026-05-07 19:21 50.04354 8.54732 360 ft 13 kts 142°
2026-05-07 19:22 50.04324 8.54762 358 ft 6 kts 149°
2026-05-07 19:22 50.04273 8.54797 358 ft 10 kts 161°
2026-05-07 19:22 50.04196 8.54839 354 ft 12 kts 161°
2026-05-07 19:22 50.04112 8.54886 354 ft 12 kts 160°
2026-05-07 19:23 50.04049 8.54922 353 ft 8 kts 158°
2026-05-07 19:23 50.04019 8.54981 355 ft 9 kts 103°
2026-05-07 19:23 50.04044 8.55124 355 ft 18 kts 69°
2026-05-07 19:23 50.04092 8.55321 355 ft 21 kts 69°
2026-05-07 19:24 50.04145 8.55547 355 ft 22 kts 70°
2026-05-07 19:24 50.04196 8.55758 355 ft 15 kts 69°
2026-05-07 19:24 50.04228 8.55893 360 ft 8 kts 70°
2026-05-07 19:24 50.04232 8.55908 356 ft 0 kts 70°
2026-05-07 19:25 50.04236 8.55925 356 ft 4 kts 70°
2026-05-07 19:26 50.04248 8.55980 358 ft 8 kts 70°
2026-05-07 19:26 50.04274 8.56088 361 ft 13 kts 69°
2026-05-07 19:26 50.04313 8.56248 363 ft 18 kts 69°
2026-05-07 19:26 50.04361 8.56444 361 ft 21 kts 69°
2026-05-07 19:27 50.04410 8.56654 362 ft 17 kts 70°
2026-05-07 19:27 50.04446 8.56804 365 ft 11 kts 65°
2026-05-07 19:27 50.04497 8.56870 359 ft 6 kts 16°
2026-05-07 19:27 50.04524 8.56882 359 ft 3 kts 15°
2026-05-07 19:28 50.04544 8.56889 359 ft 3 kts 13°
2026-05-07 19:28 50.04567 8.56897 361 ft 4 kts 13°
2026-05-07 19:28 50.04613 8.56914 356 ft 8 kts 13°
2026-05-07 19:28 50.04669 8.56946 358 ft 10 kts 24°
2026-05-07 19:29 50.04740 8.56996 359 ft 12 kts 25°
2026-05-07 19:29 50.04812 8.57047 356 ft 10 kts 25°
2026-05-07 19:29 50.04839 8.57102 357 ft 6 kts 109°
2026-05-07 19:29 50.04822 8.57155 361 ft 5 kts 116°
2026-05-07 19:30 50.04814 8.57180 360 ft 1 kts 115°
2026-05-07 19:30 50.04812 8.57188 360 ft 1 kts 114°
2026-05-07 19:30 50.04811 8.57190 360 ft 0 kts 114°